Location: Rotheul
(50.2849°N, 11.2349°E)
Time: 09:55:31
(UTC+02:00)

ISS - Pass Details

Date: 24 May 2018
Orbit: 402 x 407 km, 51.6° (Epoch: 27 May)

Event Time Altitude Azimuth Distance (km) Brightness Sun altitude
Rises 02:56:23 0° 286° (WNW) 2,320 -0.1 -15.3°
Reaches altitude 10° 02:58:34 10° 277° (W) 1,458 -1.2 -15.2°
Enters shadow 03:00:15 24° 255° (WSW) 895 -2.5 -15.1°
